#timestamp,LO_Frequency,Hit,StdDev 
1554156015.4,286046999.5,N
1554156035.3,286046997.0,N
1554156055.1,286046999.2,N
1554156075.8,286046998.4,N
1554156095.7,286046997.0,N
1554156115.5,286046995.0,Y
1554156135.4,286046999.4,P
1554156155.2,286047002.8,P
1554156175.0,286047002.7,N
1554156175.9,286047002.7,N
1554156195.8,286047001.9,N
1554156215.6,286047002.5,N
1554156235.5,286047001.6,N
1554156255.3,286047001.6,N
1554156275.1,286047002.1,N
1554156295.9,286047001.2,N
1554156315.7,286046996.9,N
1554156335.6,286046998.6,N
1554156355.4,286046998.7,N
1554156375.2,286046997.2,N
1554156395.1,286047000.1,N
1554156396.0,286047000.1,N
1554156415.8,286047000.7,N
1554156435.7,286046999.7,N
1554156455.5,286047000.0,N
1554156475.3,286046999.9,N
1554156495.2,286046999.7,N
1554156515.9,286047004.0,N
1554156535.7,286047004.2,N
1554156555.6,286047005.4,N
1554156575.4,286047004.8,N
1554156595.3,286047004.8,N
1554156615.1,286047005.4,N
1554156616.0,286047005.4,N
1554156635.8,286047004.1,N
1554156655.7,286047002.2,N
1554156675.5,286047002.7,N
1554156695.3,286047003.4,N
1554156715.2,286047000.2,N
1554156735.0,286047001.2,N
1554156735.9,286047001.2,N
1554156755.8,286047001.0,N
1554156775.6,286047000.0,N
1554156795.4,286047001.2,N
1554156815.3,286047001.0,N
1554156835.1,286047000.2,N
1554156855.8,286047001.3,N
1554156875.7,286047003.3,N
1554156895.5,286047005.6,N
1554156915.4,286047005.7,N
1554156935.2,286047007.5,Y
1554156955.0,286047001.7,P
1554156955.9,286047001.7,P
1554156975.8,286047005.5,P
1554156995.6,286047004.3,N
1554157015.5,286047003.6,N
1554157035.3,286047004.2,N
1554157055.1,286047001.6,N
1554157075.9,286047001.5,N
1554157095.7,286046998.8,N
1554157115.6,286046998.9,N
1554157135.4,286047001.2,N
1554157155.2,286047000.7,N
1554157175.1,286047002.6,N
1554157176.0,286047002.6,N
1554157195.8,286047000.1,N
1554157215.6,286047002.7,N
1554157235.5,286047002.7,N
1554157255.3,286046998.2,N
1554157275.2,286047002.6,N
1554157295.9,286046998.5,N
1554157315.7,286047000.6,N
1554157335.6,286046998.5,N
1554157355.4,286047000.7,N
1554157375.2,286047001.9,N
1554157395.1,286047002.7,N
1554157396.0,286047002.7,N
1554157415.8,286047003.5,N
1554157435.7,286047000.6,N
1554157455.5,286046998.5,N
1554157475.3,286046998.7,N
1554157495.2,286046999.1,N
1554157515.9,286046998.5,N
1554157535.7,286046999.4,N
1554157555.6,286046994.9,N
1554157575.4,286046997.6,N
1554157595.3,286046996.7,N
1554157615.1,286046998.7,N
1554157616.0,286046998.7,N
1554157635.8,286047002.8,N
1554157655.7,286046998.4,N
1554157675.5,286047000.5,N
1554157695.3,286046999.8,N
1554157715.2,286047002.2,N
1554157735.0,286047001.5,N
1554157735.9,286047001.5,N
1554157755.8,286047003.5,N
1554157775.6,286047004.3,N
1554157795.4,286047001.3,N
1554157815.3,286047001.5,N
1554157835.1,286047001.0,N
1554157855.9,286046998.5,N
1554157875.7,286046998.9,N
1554157895.5,286046999.5,N
1554157915.4,286046999.6,N
1554157935.2,286046996.5,N
1554157955.0,286047001.1,N
1554157955.9,286047001.1,N
1554157975.8,286046998.3,N
1554157995.6,286046999.4,N
1554158015.5,286046999.3,N
1554158035.3,286046998.9,N
1554158055.1,286046998.7,N
1554158075.9,286047000.2,N
1554158095.7,286047001.7,N
1554158115.5,286047000.2,N
1554158135.4,286047001.1,N
1554158155.2,286047002.1,N
1554158175.1,286047004.3,N
1554158176.0,286047004.3,N
1554158195.8,286047003.9,N
1554158215.6,286047003.2,N
1554158235.5,286047005.7,N
1554158255.3,286047004.0,N
1554158275.2,286047002.5,N
1554158295.9,286047004.2,N
1554158315.7,286047001.7,N
1554158335.6,286047003.1,N
1554158355.4,286047007.2,Y
1554158375.2,286047003.5,P
1554158395.1,286047001.9,N
1554158396.0,286047001.9,N
1554158415.8,286047001.6,N
1554158435.7,286047002.3,N
1554158455.5,286047003.4,Y
1554158475.3,286046998.4,P
1554158495.2,286046999.4,N
1554158515.0,286046999.3,N
1554158515.9,286046999.3,N
1554158535.8,286046998.0,N
1554158555.6,286046995.4,Y
1554158575.4,286046998.4,P
1554158595.3,286046998.2,P
1554158615.1,286046998.2,P
1554158635.9,286046997.3,Y
1554158655.7,286046998.4,P
1554158675.5,286047000.0,N
1554158695.4,286047002.0,N
1554158715.2,286046999.8,N
1554158735.0,286047000.5,N
1554158735.9,286047000.5,N
1554158755.8,286046998.3,N
1554158775.6,286046998.1,N
1554158795.4,286047000.6,N
1554158815.3,286047000.6,N
1554158835.1,286047001.3,N
1554158855.9,286047001.5,N
1554158875.7,286047002.4,N
1554158895.5,286047001.6,N
1554158915.4,286047001.4,N
1554158935.2,286047000.4,N
1554158955.1,286046998.3,N
1554158956.0,286046998.3,N
1554158975.8,286047000.8,N
1554158995.6,286047000.5,N
1554159015.5,286046999.7,N
1554159035.3,286046998.7,N
1554159055.2,286046999.4,N
1554159075.9,286047000.8,N
1554159095.7,286047000.3,N
1554159115.6,286047001.6,N
1554159135.4,286047005.8,Y
1554159155.3,286047003.7,P
1554159175.1,286047003.7,N
1554159176.0,286047003.7,N
1554159195.8,286047005.9,Y
1554159215.7,286046998.9,P
1554159235.5,286047001.1,N
1554159255.3,286046996.9,N
1554159275.2,286046996.5,N
1554159295.0,286047002.7,N
1554159295.9,286047002.7,N
1554159315.8,286047002.8,N
1554159335.6,286047002.7,N
1554159355.4,286046998.1,N
1554159375.3,286047000.1,N
1554159395.1,286047000.1,N
1554159415.8,286047004.4,N
1554159435.7,286046999.7,N
1554159455.5,286047000.8,N
1554159475.4,286047000.0,N
1554159495.2,286046999.3,N
1554159515.0,286046997.4,N
1554159515.9,286046997.4,N
1554159535.8,286046999.2,N
1554159555.6,286047000.5,N
1554159575.4,286047000.5,N
1554159595.3,286046997.2,N
